Location: Cussy
(47.0410°N, 4.6412°E)
Time: 17:41:45
(UTC+00:00)

Cosmos 1328 Rocket - Visible Passes

Search period start: 16 April 2021 00:00
Search period end: 26 April 2021 00:00
Orbit: 602 x 626 km, 82.5° (Epoch: 15 April)

Date Brightness Start Highest point End Pass type
(mag) Time Alt. Az. Time Alt. Az. Time Alt. Az.
16 Apr 6.0 01:24:51 14° NW 01:24:51 14° NW 01:26:15 10° NNW visible
17 Apr 5.4 00:03:23 29° N 00:03:23 29° N 00:05:39 10° N visible
17 Apr 6.1 22:41:55 14° NE 22:41:55 14° NE 22:42:51 10° NE visible
18 Apr 5.4 00:18:57 28° NNW 00:18:57 28° NNW 00:21:19 10° N visible
18 Apr 5.7 22:57:28 21° NE 22:57:28 21° NE 22:59:13 10° NNE visible
19 Apr 5.6 00:34:30 22° NW 00:34:30 22° NW 00:36:47 10° NNW visible
19 Apr 5.3 23:13:01 28° NNE 23:13:01 28° NNE 23:15:16 10° NNE visible
20 Apr 5.9 00:50:03 15° NW 00:50:03 15° NW 00:51:55 10° NNW visible
20 Apr 5.1 23:28:33 35° N 23:28:33 35° N 23:31:09 10° N visible
21 Apr 5.9 22:07:02 14° NE 22:07:02 14° NE 22:08:12 10° NE visible
21 Apr 5.1 23:44:04 33° NNW 23:44:04 33° NNW 23:46:51 10° N visible
22 Apr 5.4 22:22:33 22° NE 22:22:33 22° NE 22:24:38 10° NNE visible
22 Apr 5.4 23:59:35 25° NW 23:59:35 25° NW 00:02:21 10° NNW visible
23 Apr 4.9 22:38:02 33° NE 22:38:02 33° NE 22:40:44 10° NNE visible
24 Apr 5.8 00:15:04 17° WNW 00:15:04 17° WNW 00:17:33 10° NNW visible
24 Apr 4.6 22:53:31 44° N 22:53:31 44° N 22:56:38 10° N visible
25 Apr 6.2 00:30:33 11° WNW 00:30:38 11° WNW 00:31:50 10° NW visible
25 Apr 5.7 21:31:58 15° ENE 21:31:58 15° ENE 21:33:31 10° NE visible
25 Apr 4.7 23:08:59 42° NW 23:08:59 42° NW 23:12:21 10° N visible
